Skip Page Navigation
NASA JPL Caltech
NASA Logo - Jet Propulsion Laboratory + View the NASA Portal
+ Center for Near-Earth Object Studies
JPL Home Earth Solar System Stars & Galaxies Technology
JPL Solar System Dynamics
BODIES ORBITS EPHEMERIDES TOOLS PHYSICAL DATA DISCOVERY FAQ SITE MAP
JPL Small-Body Database Browser
Search: [ help ]  
(2015 VM173)
Classification: TransNeptunian Object          SPK-ID: 3835797
Ephemeris | Orbit Diagram | Orbital Elements | Physical Parameters ]

[ show orbit diagram ]
Orbital Elements at Epoch 2459000.5 (2020-May-31.0) TDB
Reference: JPL 2 (heliocentric ecliptic J2000)
 Element Value Uncertainty (1-sigma)   Units 
e .05764236972439477 0.00038532  
a 43.83143387457971 0.0056331 au
q 41.30488615763083 0.016031 au
i 2.434016971028516 0.00090012 deg
node 183.7076223433121 0.022163 deg
peri 95.77550688180187 0.3549 deg
M 130.6696760426822 0.41472 deg
tp 2420528.101929868106
(1915-Jan-30.60192987)
117.78 TDB
period 105992.9413211637
290.19
20.433
0.05594
d
yr
n .003396452589320856 6.5475e-07 deg/d
Q 46.3579815915286 0.0059578 au
  Orbit Determination Parameters
   # obs. used (total)      41  
   data-arc span      1804 days (4.94 yr)  
   first obs. used      2014-11-17  
   last obs. used      2019-10-26  
   planetary ephem.      DE431  
   SB-pert. ephem.      SB431-N16  
   condition code      4  
   norm. resid. RMS      .08815  
   source      ORB  
   producer      Otto Matic  
   solution date      2020-Feb-22 11:12:34  

Additional Information
 Earth MOID = 40.2894 au 
 Jupiter MOID = 36.0784 au 
 T_jup = 5.909 
[ show covariance matrix ]

Ephemeris | Orbit Diagram | Orbital Elements | Physical Parameters ]

Physical Parameter Table
Parameter Symbol Value Units Sigma Reference Notes
absolute magnitude H 6.1   .14529 MPO458718 autocmod 2.6n
Ephemeris | Orbit Diagram | Orbital Elements | Physical Parameters ]
ABOUT SSD CREDITS/AWARDS PRIVACY/COPYRIGHT GLOSSARY LINKS
FirstGov 2020-Oct-28 03:51 UT
(server date/time)  
NASA Home Page
Site Manager:   Ryan S. Park
Webmaster  Alan B. Chamberlin